GW4808 Weather Reports


time (UTC)temp
F
wind
direction
speed
knots
gust
knots
rain 1hr
in
rain 24hr
in
rain mn
in
humidity
%
barometer
mb
20260504224304 73 299 11.3 12.2 0.00 0.00 0.00 83 1015.8
20260504223705 72 316 11.3 12.2 0.00 0.00 0.00 84 1015.6
20260504223105 71 322 11.3 12.2 0.00 0.00 0.00 85 1015.7
20260504221905 69 26 11.3 13.0 0.00 0.00 0.00 90 1015.8
20260504221305 67 99 11.3 12.2 0.00 0.00 0.00 90 1015.8
20260504220704 67 108 11.3 12.2 0.00 0.00 0.00 93 1015.8
20260504220104 67 121 11.3 12.2 0.00 0.00 0.00 92 1015.8
20260504215505 65 112 11.3 13.0 0.00 0.00 0.00 95 1015.8
20260504214905 64 114 11.3 13.0 0.00 0.00 0.00 94 1015.8
20260504214305 63 115 12.2 13.0 0.00 0.00 0.00 95 1015.8
20260504213705 63 114 12.2 13.0 0.00 0.00 0.00 95 1015.8
20260504213105 61 114 13.0 13.9 0.00 0.00 0.00 99 1015.7
20260504212505 60 114 13.0 13.9 0.00 0.00 0.00 99 1015.7
20260504211905 60 125 12.2 13.9 0.00 0.00 0.00 99 1015.5
20260504211304 59 135 13.0 13.9 0.00 0.00 0.00 99 1015.5
20260504210704 59 236 13.0 13.9 0.00 0.00 0.00 99 1015.5
20260504210105 59 121 12.2 13.9 0.00 0.00 0.00 99 1015.4
20260504204905 58 128 13.0 13.9 0.00 0.00 0.00 99 1015.2
20260504204305 58 168 13.0 13.9 0.00 0.00 0.00 99 1015.0
20260504203705 58 239 13.0 13.9 0.00 0.00 0.00 99 1014.9
20260504203105 59 232 13.0 14.8 0.00 0.00 0.00 99 1014.8
20260504202504 59 169 13.0 14.8 0.00 0.00 0.00 99 1014.9
20260504201904 59 147 13.0 13.9 0.00 0.00 0.00 99 1014.5
20260504201304 59 118 13.0 13.0 0.00 0.00 0.00 99 1014.4
20260504200704 59 117 13.0 13.9 0.00 0.00 0.00 99 1014.4
20260504200105 59 117 13.0 13.9 0.00 0.00 0.00 99 1014.3
20260504195505 59 116 13.0 13.9 0.00 0.00 0.00 99 1014.2
20260504194905 59 132 13.0 13.9 0.00 0.00 0.00 99 1014.3
20260504194305 59 157 13.0 13.9 0.00 0.00 0.00 99 1014.2
20260504193705 58 151 13.0 13.9 0.00 0.00 0.00 99 1014.3
20260504193105 58 139 13.0 13.9 0.00 0.00 0.00 99 1014.3
20260504192504 58 216 13.0 14.8 0.00 0.00 0.00 99 1014.2
20260504191304 58 233 13.0 13.9 0.00 0.00 0.00 99 1014.0
20260504190705 58 179 13.0 13.9 0.00 0.00 0.00 99 1014.2
20260504190105 58 253 13.0 13.9 0.00 0.00 0.00 99 1014.0
20260504185505 58 261 13.0 13.9 0.00 0.00 0.00 99 1014.1
20260504184905 58 188 13.0 13.9 0.00 0.00 0.00 99 1014.2
20260504184305 58 230 13.0 13.9 0.00 0.00 0.00 99 1014.0
20260504183105 59 245 13.0 13.9 0.00 0.00 0.00 99 1013.8
20260504182505 59 208 13.0 13.9 0.00 0.00 0.00 99 1013.8
20260504181904 59 100 13.0 13.9 0.00 0.00 0.00 99 1014.0
20260504181305 59 107 13.0 13.9 0.00 0.00 0.00 99 1013.9
20260504175505 59 138 12.2 13.9 0.00 0.00 0.00 99 1013.9
20260504174304 59 119 13.0 13.9 0.00 0.00 0.00 99 1014.0
20260504173704 59 118 13.0 13.9 0.00 0.00 0.00 99 1013.8
20260504173104 59 126 13.0 14.8 0.00 0.00 0.00 99 1013.9
20260504172505 59 155 13.0 14.8 0.00 0.00 0.00 99 1013.8
20260504170105 59 124 13.0 14.8 0.00 0.00 0.00 99 1014.0
20260504160104 59 260 13.0 13.9 0.00 0.00 0.00 99 1014.5
20260504150704 60 132 13.0 13.9 0.00 0.00 0.00 99 1015.0
20260504150104 60 124 12.2 13.9 0.00 0.00 0.00 99 1015.0
20260504141304 60 178 13.0 13.9 0.00 0.00 0.00 99 1015.2
20260504140105 61 191 13.0 13.9 0.00 0.00 0.00 99 1015.2
20260504130705 61 138 13.0 14.8 0.00 0.00 0.00 99 1015.5
20260504130105 61 142 13.0 14.8 0.00 0.00 0.00 99 1015.5
20260504110705 62 257 13.0 14.8 0.00 0.01 0.00 99 1016.0
20260504110105 63 248 13.0 14.8 0.00 0.01 0.00 99 1016.0
20260504090104 64 138 12.2 13.9 0.00 0.02 0.00 96 1015.0
20260504081305 71 110 7.8 8.7 0.00 0.02 0.00 79 1014.3
20260504080705 72 108 7.8 9.6 0.00 0.02 0.00 77 1014.3
20260504080104 73 115 7.8 9.6 0.00 0.02 0.00 76 1014.3
20260504070105 77 99 7.0 10.4 0.00 0.02 0.00 69 1013.5
20260504050704 83 85 13.0 14.8 0.00 0.02 0.00 56 1013.2
20260504050105 83 74 13.0 16.5 0.00 0.02 0.00 56 1013.0
20260504045505 83 111 12.2 16.5 0.00 0.02 0.00 55 1013.0
20260504044905 83 95 10.4 13.0 0.00 0.02 0.00 55 1013.0
20260504044305 83 97 12.2 14.8 0.00 0.02 0.00 56 1013.1
20260504043704 83 103 12.2 14.8 0.00 0.02 0.00 56 1013.2
20260504042505 83 92 7.0 10.4 0.00 0.02 0.00 54 1013.1
20260504041905 83 107 7.8 10.4 0.00 0.02 0.00 56 1013.0
20260504041304 84 97 10.4 13.9 0.00 0.02 0.00 56 1013.0
20260504040705 84 78 12.2 14.8 0.00 0.02 0.00 56 1013.0
20260504040105 84 79 12.2 15.6 0.00 0.02 0.00 55 1013.0
20260504035504 83 106 11.3 15.6 0.00 0.02 0.00 54 1013.0
20260504034904 84 98 11.3 13.9 0.00 0.02 0.00 54 1013.1
20260504034304 84 103 12.2 14.8 0.00 0.02 0.00 54 1013.1
20260504033705 83 100 13.0 14.8 0.00 0.02 0.00 56 1013.2
20260504033105 83 99 12.2 14.8 0.00 0.02 0.00 54 1013.2
20260504031905 84 104 12.2 15.6 0.00 0.02 0.00 54 1013.5
20260504031305 84 84 12.2 15.6 0.00 0.02 0.00 56 1013.4
20260504030104 83 97 12.2 15.6 0.00 0.02 0.00 58 1013.7
20260504024905 83 117 12.2 17.4 0.00 0.02 0.00 57 1014.0
20260504024305 83 108 12.2 16.5 0.00 0.02 0.00 58 1014.1
20260504023705 82 112 11.3 14.8 0.00 0.02 0.00 60 1014.3
20260504023104 82 117 10.4 13.9 0.00 0.02 0.00 61 1014.5
20260504022504 82 106 12.2 14.8 0.00 0.02 0.00 59 1014.7
20260504021904 81 97 12.2 13.9 0.00 0.02 0.00 65 1014.7
20260504020705 81 103 13.0 16.5 0.00 0.02 0.00 66 1014.8
20260504020105 80 131 12.2 16.5 0.00 0.02 0.00 68 1014.8
20260504015505 79 124 13.0 17.4 0.00 0.02 0.00 73 1015.0
20260504014905 80 114 13.0 17.4 0.00 0.02 0.00 70 1015.2
20260504014305 80 110 13.0 15.6 0.00 0.02 0.00 72 1015.1
20260504013704 80 111 13.0 15.6 0.00 0.02 0.00 72 1015.4
20260504013105 78 96 12.2 14.8 0.00 0.02 0.00 74 1015.5
20260504010705 80 116 13.9 20.0 0.00 0.02 0.00 68 1015.5
20260504010105 79 118 13.0 15.6 0.00 0.02 0.00 70 1015.8
20260504005505 79 112 13.0 17.4 0.00 0.02 0.00 69 1015.8
20260504003105 80 103 13.0 17.4 0.00 0.03 0.00 70 1016.1
20260504002505 80 107 12.2 15.6 0.00 0.03 0.00 71 1016.1
20260504001904 79 111 13.0 14.8 0.00 0.03 0.00 71 1016.2
20260504000705 78 100 13.0 16.5 0.00 0.03 0.00 74 1016.2
20260504000105 78 98 13.0 16.5 0.00 0.03 0.00 75 1016.2
20260503235505 78 107 12.2 16.5 0.00 0.03 0.00 74 1016.3
20260503234905 77 112 12.2 16.5 0.00 0.03 0.00 76 1016.3
20260503234304 77 119 12.2 18.2 0.00 0.03 0.00 75 1016.4
20260503233105 76 95 12.2 15.6 0.00 0.03 0.00 78 1016.4
20260503232505 77 96 12.2 15.6 0.00 0.03 0.00 76 1016.4
20260503231904 77 99 12.2 16.5 0.00 0.03 0.00 75 1016.4
20260503230104 77 108 12.2 15.6 0.00 0.03 0.00 75 1016.1
20260503225504 76 114 12.2 15.6 0.00 0.03 0.00 78 1016.2
20260503224904 75 95 12.2 14.8 0.00 0.03 0.00 79 1016.2